Location: Haulchin
(50.3172°N, 3.4360°E)
Time: 21:10:08
(UTC+00:00)

Cosmos 968 Rocket - Pass Details

Date: 23 May 2024
Orbit: 738 x 769 km, 74.0° (Epoch: 14 June)

Event Time Altitude Azimuth Distance (km) Brightness Sun altitude
Exits shadow 02:02:13 16° 192° (SSW) 1,862 4.9 -12.7°
Maximum altitude 02:06:16 71° 111° (ESE) 786 3.6 -12.3°
Drops below altitude 10° 02:11:23 10° 28° (NNE) 2,272 7.5 -11.8°
Sets 02:13:46 0° 26° (NNE) 3,205 8.7 -11.6°
